Location: Baia Mare
(47.6567°N, 23.5850°E)
Time: 09:11:15
(UTC+03:00)

ISS - Pass Details

Date: 25 October 2018
Orbit: 403 x 408 km, 51.6° (Epoch: 21 October)

Event Time Altitude Azimuth Distance (km) Brightness Sun altitude
Rises 07:21:31 0° 197° (SSW) 2,308 -0.1 -6.9°
Reaches altitude 10° 07:24:13 10° 172° (S) 1,455 -0.8 -6.5°
Maximum altitude 07:26:09 15° 136° (SE) 1,200 -0.5 -6.2°
Drops below altitude 10° 07:28:05 10° 100° (E) 1,463 0.9 -5.9°
Sets 07:30:49 0° 75° (ENE) 2,329 1.3 -5.4°
